Location: Vulcan
(50.4000°N, 113.2500°W)
Time: 04:56:59
(UTC-07:00)

Transit 4A - Visible Passes

Search period start: 20 November 2019 00:00
Search period end: 30 November 2019 00:00
Orbit: 869 x 976 km, 66.8° (Epoch: 20 November)

Date Brightness Start Highest point End Pass type
(mag) Time Alt. Az. Time Alt. Az. Time Alt. Az.
20 Nov 10.0 03:38:16 18° NNE 03:38:16 18° NNE 03:41:23 10° NE visible
20 Nov 8.9 05:21:48 20° NNW 05:25:28 39° NE 05:30:55 10° ESE visible
20 Nov 8.0 07:06:18 10° NW 07:12:05 56° WSW 07:17:44 10° SSE visible
21 Nov 9.9 03:47:40 20° NNE 03:47:40 20° NNE 03:51:29 10° ENE visible
21 Nov 8.5 05:31:12 21° NNW 05:35:00 50° NE 05:40:40 10° ESE visible
21 Nov 8.4 07:15:50 10° NW 07:21:16 39° WSW 07:26:36 10° S visible
22 Nov 9.7 03:57:07 23° NNE 03:57:07 23° NNE 04:01:36 10° ENE visible
22 Nov 8.1 05:40:39 23° NNW 05:44:28 66° NE 05:50:15 10° SE visible
23 Nov 9.4 04:06:37 27° NNE 04:06:41 27° NNE 04:11:38 10° E visible
23 Nov 7.7 05:50:09 24° NW 05:53:51 88° NE 05:59:41 10° SE visible
24 Nov 9.1 04:16:12 33° NNE 04:16:20 33° NE 04:21:36 10° E visible
24 Nov 7.7 05:59:44 26° NW 06:03:10 69° WSW 06:08:55 10° SSE visible
25 Nov 8.7 04:25:51 42° NE 04:25:55 42° NE 04:31:26 10° ESE visible
25 Nov 8.0 06:09:24 26° WNW 06:12:23 49° WSW 06:17:57 10° S visible
26 Nov 10.7 02:52:01 10° ENE 02:52:01 10° ENE 02:52:07 10° ENE visible
26 Nov 8.3 04:35:34 55° NE 04:35:34 55° NE 04:41:08 10° ESE visible
26 Nov 8.4 06:19:08 25° WNW 06:21:34 35° WSW 06:26:44 10° S visible
27 Nov 10.6 03:01:49 11° ENE 03:01:49 11° ENE 03:02:13 10° E visible
27 Nov 8.0 04:45:24 68° E 04:45:24 68° E 04:50:40 10° SE visible
27 Nov 8.8 06:28:57 21° W 06:30:39 25° WSW 06:35:13 10° SSW visible
28 Nov 10.5 03:11:43 12° E 03:11:43 12° E 03:12:14 10° E visible
28 Nov 8.0 04:55:17 61° SSE 04:55:17 61° SSE 05:00:02 10° SSE visible
28 Nov 9.2 06:38:52 16° W 06:39:40 17° WSW 06:43:15 10° SW visible
28 Nov 9.9 19:59:23 10° SSW 20:00:36 16° S 20:00:36 16° S visible
29 Nov 10.4 03:21:42 12° ESE 03:21:42 12° ESE 03:22:09 10° ESE visible
29 Nov 8.4 05:05:16 42° S 05:05:16 42° S 05:09:12 10° SSE visible
29 Nov 9.6 06:48:50 11° WSW 06:48:50 11° WSW 06:50:09 10° WSW visible
29 Nov 9.8 18:26:02 10° SE 18:27:06 12° SE 18:27:06 12° SE visible
29 Nov 9.5 20:08:27 10° SSW 20:10:41 23° SSW 20:10:41 23° SSW visible
